Orbital Elements at Epoch 2459200.5 (2020-Dec-17.0) TDB
Reference: JPL 18 (heliocentric ecliptic J2000)
Element | Value | Uncertainty (1-sigma) | Units |
e | .07681306183175803 | 6.3047e-08 | |
a | 3.017361183841923 | 2.195e-08 | au |
q | 2.785588432658727 | 2.033e-07 | au |
i | 2.424552468418354 | 3.7934e-06 | deg |
node | 247.1291567961604 | 0.0001132 | deg |
peri | 120.174548826043 | 0.00011664 | deg |
M | 355.8075243953361 | 2.5636e-05 | deg |
tp | 2459222.794997040463 (2021-Jan-08.29499704) | 0.00013631 | TDB |
period | 1914.429490212933 5.24 | 2.089e-05 5.719e-08 | d yr |
n | .1880455779857209 | 2.0519e-09 | deg/d |
Q | 3.249133935025119 | 2.3636e-08 | au |
|
| | Orbit Determination Parameters
Additional Information
|